STARLINK-32763, 62750

Orbit data source: Space-Track

STARLINK-32763, 62750 is a payload satellite owned by SpaceX/Seattle (US) in LEO that was launched on Tue, 21 Jan 2025 UTC via an FALCON 9 launch vehicle from the Air Force Eastern Test Range (AFETR). Payload-class satellites include a variety of spacecraft equipped with specific instruments for various scientific and technological missions. These include communications satellites like Starlink; space stations such as the ISS; scientific satellites like the Hubble; Earth observation satellites from companies like Planet Labs, Umbra, and HawkEye 360; GPS; miniature CubeSats for education and research; and military/defense satellites.

Loading next visibility...
Identifier
62750, 2025-014R
Orbit
LEO
Country
Flag of USUS
Related business
Manufacturer
SpaceX/Seattle
Mission
Operational Commercial Communications
Bus & Motor
STARLINK V2M, Unknown motor
Mass
730 kg wet, ~700 kg dry
Launch date (UTC)
2025-01-21 (11 months ago)
Launch vehicle
FALCON 9
Launch site
Air Force Eastern Test Range (AFETR)
Object type
Payload
Rocket body
Debris
Shape & HBR
Box + 2 Pan, 17.7 m
Radar Cross Section
33.884 m², Large (>1 m²)

Expand to show TLE details & history
Last TLE update: 19 hours ago

TLE from 19 hours ago
0 STARLINK-32763
1 62750U 25014R   25348.84053180  .00028734  00000-0  10497-2 0  9990
2 62750  43.0001 273.3272 0000635 283.2736  76.8045 15.27576847 50288
Epoch: 2025-12-14T20:10Z
TLE epoch observation values (Epoch: 2025-12-14T20:10:21.947Z)
Latitude
-0.00001°
Longitude
-113.01193°
Altitude
482.735 km
Speed
7.626 km/s
True Right ascension
18h 13m 18s
True Declination
0° 00' 00"
Sunlit
Object was in daylight at epoch
Visualization orbit readout
Latitude
Unknown
Longitude
Unknown
Altitude
Unknown
Speed
Unknown
Apparent Right ascension
Unknown
Apparent Declination
Unknown
Sunlit
N/A
Visualization observer readout
Local Sidereal Time
13:20:32
Azimuth
Unknown
Elevation
Unknown
Doppler factor
Unknown
Orbital elements
Apogee altitude
485.44 km
Perigee altitude
484.568 km
Semi-major axis
6,863.141 km
Eccentricity
0.00006
Inclination
43.0001°
RAAN
273.3272°
Arg. of periapsis
283.2736°
True anomaly
76.81158°
Mean anomaly
76.8045°
Eccentric anomaly
76.80804°
Mean motion
3.81732 °/min
Orbital period
94.31 mins
BSTAR
0.0010497
Loading maneuver chart data...
Computing Atmospheric mass density...
Loading historical data...
Loading historical data...
Loading historical data...
Loading historical data...
Loading historical data...
Loading historical data...
Loading historical data...

Documentation

Showing up to 5 results
|